NS7V-1 Weather Reports


Display with metric or nautical units.
time (UTC)temp
F
wind
direction
speed
MPH
gust
MPH
rain 1hr
in
rain 24hr
in
rain mn
in
humidity
%
barometer
mb
20260503190521 62 45 2.0 5.0 0.00 0.00 0.00 73 1013.9
20260503185521 62 45 2.0 5.0 0.00 0.00 0.00 74 1013.8
20260503184521 62 45 2.0 5.0 0.00 0.00 0.00 74 1014.0
20260503183520 62 45 2.0 6.0 0.00 0.00 0.00 73 1014.2
20260503182521 61 68 2.0 5.0 0.00 0.00 0.00 74 1014.3
20260503181521 61 45 2.0 4.0 0.00 0.00 0.00 74 1014.2
20260503180521 61 45 2.0 6.0 0.00 0.00 0.00 75 1014.3
20260503175521 61 45 2.0 6.0 0.00 0.00 0.00 76 1014.4
20260503174521 61 45 2.0 4.0 0.00 0.00 0.00 78 1014.4
20260503173642 60 45 1.0 4.0 0.00 0.00 0.00 77 1014.4
20260503172544 60 45 2.0 5.0 0.00 0.00 0.00 77 1014.6
20260503171521 61 23 1.0 6.0 0.00 0.00 0.00 76 1014.6
20260503170521 60 45 1.0 5.0 0.00 0.00 0.00 77 1014.7
20260503150520 58 23 1.0 5.0 0.00 0.00 0.00 82 1015.0
20260503130520 52 0.0 3.0 0.00 0.01 0.00 95 1014.6
20260503110520 52 0.0 2.0 0.00 0.01 0.00 92 1014.7
20260503081520 55 0.0 1.0 0.00 0.01 0.00 83 1014.5
20260503080604 55 0.0 1.0 0.00 0.01 0.00 82 1014.4
20260503072522 56 0.0 1.0 0.00 0.01 0.00 80 1014.2
20260503071522 56 0.0 2.0 0.00 0.01 0.00 79 1014.2
20260503070521 56 0.0 2.0 0.00 0.01 0.00 79 1014.2
20260503054522 54 0.0 1.0 0.00 0.01 0.01 84 1014.0
20260503053520 53 0.0 1.0 0.00 0.01 0.01 85 1014.0
20260503052541 54 0.0 2.0 0.00 0.01 0.01 85 1014.1
20260503051522 54 0.0 1.0 0.00 0.01 0.01 84 1014.2
20260503050522 54 0.0 2.0 0.00 0.01 0.01 84 1014.2
20260503045522 54 0.0 2.0 0.00 0.01 0.01 83 1014.1
20260503044522 55 0.0 1.0 0.00 0.01 0.01 83 1014.1
20260503043523 55 0.0 1.0 0.00 0.01 0.01 81 1014.0
20260503042522 55 0.0 2.0 0.00 0.01 0.01 83 1014.0
20260503041542 55 0.0 1.0 0.00 0.01 0.01 83 1013.9
20260503040520 55 0.0 1.0 0.00 0.01 0.01 81 1013.8
20260503035522 55 0.0 1.0 0.00 0.01 0.01 81 1013.7
20260503034522 56 0.0 1.0 0.00 0.01 0.01 81 1013.5
20260503033521 56 0.0 2.0 0.00 0.01 0.01 82 1013.5
20260503032522 57 0.0 1.0 0.00 0.01 0.01 79 1013.4
20260503031542 57 0.0 2.0 0.00 0.01 0.01 79 1013.4
20260503030522 58 0.0 2.0 0.00 0.01 0.01 77 1013.3
20260503025522 59 0.0 1.0 0.00 0.01 0.01 73 1013.3
20260503024522 59 0.0 1.0 0.00 0.01 0.01 73 1013.2
20260503023522 60 0.0 1.0 0.00 0.01 0.01 70 1013.3
20260503022521 60 0.0 1.0 0.00 0.01 0.01 70 1013.4
20260503021522 61 0.0 1.0 0.00 0.01 0.01 70 1013.4
20260503020522 61 0.0 1.0 0.00 0.01 0.01 68 1013.5
20260503015542 62 0.0 2.0 0.00 0.01 0.01 68 1013.5
20260503014522 62 0.0 2.0 0.00 0.01 0.01 69 1013.6
20260503013521 62 23 1.0 2.0 0.00 0.01 0.01 64 1013.7
20260503012545 63 0.0 3.0 0.00 0.01 0.01 65 1013.8
20260503011521 63 0 1.0 4.0 0.00 0.01 0.01 65 1013.8
20260503010542 64 68 1.0 2.0 0.00 0.01 0.01 64 1013.8
20260503005521 64 23 1.0 4.0 0.00 0.01 0.01 64 1014.0
20260503004522 65 23 1.0 4.0 0.00 0.01 0.01 64 1014.0
20260503003601 65 45 1.0 5.0 0.00 0.01 0.01 63 1014.1
20260503002602 64 45 1.0 4.0 0.00 0.01 0.01 63 1014.2
20260503001522 64 23 1.0 4.0 0.00 0.01 0.01 63 1014.2
20260503000521 65 23 1.0 4.0 0.00 0.01 0.01 62 1014.3
20260502235521 64 45 2.0 4.0 0.00 0.01 0.01 62 1014.4
20260502234521 65 113 1.0 3.0 0.00 0.01 0.01 63 1014.5
20260502233522 65 23 1.0 4.0 0.00 0.01 0.01 64 1014.6
20260502232601 65 68 1.0 5.0 0.00 0.01 0.01 64 1014.7
20260502231521 64 23 1.0 5.0 0.00 0.01 0.01 66 1014.7
20260502230523 64 23 1.0 4.0 0.00 0.01 0.01 67 1014.8
20260502225521 64 90 1.0 3.0 0.00 0.01 0.01 71 1015.0
20260502224521 64 45 1.0 3.0 0.00 0.01 0.01 70 1015.1
20260502223521 63 23 1.0 4.0 0.00 0.01 0.01 70 1015.3
20260502222522 63 45 2.0 5.0 0.00 0.01 0.01 71 1015.4
20260502221521 63 45 2.0 6.0 0.00 0.01 0.01 71 1015.5
20260502220521 63 45 2.0 6.0 0.00 0.01 0.01 70 1015.6
20260502215521 63 45 2.0 6.0 0.00 0.01 0.01 71 1015.7
20260502214521 63 68 1.0 3.0 0.00 0.01 0.01 72 1015.9
20260502213521 62 23 2.0 6.0 0.00 0.01 0.01 74 1016.0
20260502212521 62 68 1.0 5.0 0.00 0.01 0.01 74 1016.2
20260502211601 62 225 1.0 4.0 0.00 0.01 0.01 75 1016.3
20260502210521 61 68 1.0 6.0 0.00 0.01 0.01 77 1016.3
20260502205521 61 45 1.0 5.0 0.00 0.01 0.01 79 1016.4
20260502204521 61 45 1.0 5.0 0.00 0.01 0.01 78 1016.5
20260502203521 60 23 2.0 5.0 0.00 0.01 0.01 78 1016.6
20260502202521 61 45 1.0 4.0 0.00 0.01 0.01 77 1016.7
20260502201521 60 23 2.0 5.0 0.00 0.01 0.01 78 1016.6
20260502200522 60 45 1.0 4.0 0.00 0.01 0.01 79 1016.7
20260502195522 59 45 2.0 6.0 0.00 0.01 0.01 80 1016.9
20260502194521 59 45 1.0 4.0 0.00 0.01 0.01 81 1017.1
20260502193521 59 45 1.0 4.0 0.00 0.01 0.01 81 1017.1
20260502192521 60 45 2.0 6.0 0.00 0.01 0.01 79 1017.1
20260502191521 60 68 1.0 4.0 0.00 0.01 0.01 81 1017.2